Satellite: NOAA-11
Catalog number: 19531
Epoch time:      06215.31876740
Element set:     221
Inclination:      098.8264 deg
RA of node:       303.2282 deg
Eccentricity:    0.0011186
Arg of perigee:   212.5192 deg
Mean anomaly:     147.5323 deg
Mean motion:   14.14813035 rev/day
Decay rate:      -1.32e-06 rev/day^2
Epoch rev:           92120
Checksum:              258

Satellite: NOAA-12
Catalog number: 21263
Epoch time:      06215.48442391
Element set:     714
Inclination:      098.7323 deg
RA of node:       208.5741 deg
Eccentricity:    0.0012226
Arg of perigee:   314.3733 deg
Mean anomaly:     045.6442 deg
Mean motion:   14.25497898 rev/day
Decay rate:        2.6e-07 rev/day^2
Epoch rev:           79098
Checksum:              308

Satellite: MET-3/5
Catalog number: 21655
Epoch time:      06215.77102946
Element set:     138
Inclination:      082.5520 deg
RA of node:       227.1701 deg
Eccentricity:    0.0012001
Arg of perigee:   284.7461 deg
Mean anomaly:     075.2332 deg
Mean motion:   13.17005673 rev/day
Decay rate:        5.1e-07 rev/day^2
Epoch rev:           71962
Checksum:              264

Satellite: MET-2/21
Catalog number: 22782
Epoch time:      06216.19445668
Element set:     576
Inclination:      082.5481 deg
RA of node:       293.3709 deg
Eccentricity:    0.0023594
Arg of perigee:   048.1280 deg
Mean anomaly:     312.1908 deg
Mean motion:   13.83608399 rev/day
Decay rate:        7.6e-07 rev/day^2
Epoch rev:           65268
Checksum:              334

Satellite: OKEAN-4
Catalog number: 23317
Epoch time:      06215.80647622
Element set:      14
Inclination:      082.5371 deg
RA of node:       232.5825 deg
Eccentricity:    0.0021093
Arg of perigee:   214.8308 deg
Mean anomaly:     145.1531 deg
Mean motion:   14.82381217 rev/day
Decay rate:        7.4e-07 rev/day^2
Epoch rev:           63703
Checksum:              266

Satellite: NOAA-14
Catalog number: 23455
Epoch time:      06215.36605917
Element set:     215
Inclination:      099.0342 deg
RA of node:       274.1347 deg
Eccentricity:    0.0008529
Arg of perigee:   278.9853 deg
Mean anomaly:     081.0399 deg
Mean motion:   14.13674342 rev/day
Decay rate:       2.47e-06 rev/day^2
Epoch rev:           59773
Checksum:              323

Satellite: SICH-1
Catalog number: 23657
Epoch time:      06216.03557092
Element set:     817
Inclination:      082.5298 deg
RA of node:       013.2695 deg
Eccentricity:    0.0023277
Arg of perigee:   202.5613 deg
Mean anomaly:     157.4585 deg
Mean motion:   14.81377255 rev/day
Decay rate:       2.57e-06 rev/day^2
Epoch rev:           58907
Checksum:              317

Satellite: NOAA-15
Catalog number: 25338
Epoch time:      06215.50296448
Element set:     606
Inclination:      098.5170 deg
RA of node:       216.3919 deg
Eccentricity:    0.0009756
Arg of perigee:   233.1068 deg
Mean anomaly:     126.9213 deg
Mean motion:   14.24595443 rev/day
Decay rate:       -9.9e-07 rev/day^2
Epoch rev:           42745
Checksum:              319

Satellite: RESURS
Catalog number: 25394
Epoch time:      06216.20135954
Element set:     427
Inclination:      098.4912 deg
RA of node:       277.4664 deg
Eccentricity:    0.0002326
Arg of perigee:   047.8757 deg
Mean anomaly:     312.2620 deg
Mean motion:   14.24108019 rev/day
Decay rate:        1.1e-07 rev/day^2
Epoch rev:           41923
Checksum:              277

Satellite: FENGYUN1
Catalog number: 25730
Epoch time:      06214.61297127
Element set:    0792
Inclination:      098.6276 deg
RA of node:       205.4076 deg
Eccentricity:    0.0014762
Arg of perigee:   012.3526 deg
Mean anomaly:     347.8027 deg
Mean motion:   14.11813074 rev/day
Decay rate:        1.9e-07 rev/day^2
Epoch rev:           37256
Checksum:              289

Satellite: OKEAN-0
Catalog number: 25860
Epoch time:      06215.61400458
Element set:     815
Inclination:      097.7323 deg
RA of node:       227.7359 deg
Eccentricity:    0.0001109
Arg of perigee:   042.2449 deg
Mean anomaly:     317.8841 deg
Mean motion:   14.73379210 rev/day
Decay rate:        4.2e-07 rev/day^2
Epoch rev:           37873
Checksum:              293

Satellite: NOAA-16
Catalog number: 26536
Epoch time:      06215.46862273
Element set:     982
Inclination:      099.0694 deg
RA of node:       182.6505 deg
Eccentricity:    0.0010560
Arg of perigee:   352.1505 deg
Mean anomaly:     007.9504 deg
Mean motion:   14.12359189 rev/day
Decay rate:       2.35e-06 rev/day^2
Epoch rev:           30225
Checksum:              297

Satellite: NOAA-17
Catalog number: 27453
Epoch time:      06215.39583217
Element set:       0
Inclination:      098.6182 deg
RA of node:       286.6874 deg
Eccentricity:    0.0010980
Arg of perigee:   300.7512 deg
Mean anomaly:     059.2598 deg
Mean motion:   14.23797271 rev/day
Decay rate:       -7.6e-07 rev/day^2
Epoch rev:           21349
Checksum:              317

